PBO Station Position Time Series. Reference Frame : NAM14
Format Version,1.1.1
4-character ID,KAGZ
Station name,Kap_Agassiz
Begin Date, 2007-08-30
End Date, 2023-06-26
Release Date, 2023-06-27
Reference position, 79.1319583601 North Latitude, -65.8529558367 East Longitude, 86.59196 meters elevation,
Date, North (mm), East (mm), Vertical (mm), North Std. Deviation (mm), East Std. Deviation (mm),              Vertical Std. Deviation (mm), Quality,
2007-08-30,0.00, 0.00, 0.00, 1.93, 1.61, 10.85, repro,
2007-08-31,0.50, -0.72, 0.77, 1.87, 1.53, 10.80, repro,
2007-09-01,2.54, -0.92, 4.75, 1.90, 1.51, 10.85, repro,
2007-09-02,1.43, 0.24, 1.88, 1.92, 1.51, 11.00, repro,
2007-09-03,2.51, -2.11, 3.25, 1.89, 1.50, 10.87, repro,
2007-09-04,1.03, -1.76, 2.93, 1.90, 1.51, 10.88, repro,
2007-09-05,0.82, -1.01, 4.86, 1.86, 1.52, 10.77, repro,
2007-09-06,2.39, -0.64, 7.22, 1.90, 1.54, 11.02, repro,
2007-09-07,2.02, -2.40, 8.41, 1.89, 1.51, 10.82, repro,
2007-09-08,1.72, -1.89, 8.27, 1.93, 1.54, 11.04, repro,
2007-09-09,1.06, -1.00, 2.56, 1.92, 1.53, 11.07, repro,
2007-09-10,0.32, -1.48, 7.98, 1.87, 1.50, 10.81, repro,
2007-09-11,1.47, -1.47, 5.00, 1.87, 1.52, 10.80, repro,
2007-09-12,2.45, -2.43, 9.16, 1.89, 1.51, 10.80, repro,
2007-09-13,2.03, -1.23, 7.90, 1.89, 1.51, 10.81, repro,
2007-09-14,1.17, -1.12, 6.25, 1.89, 1.51, 10.83, repro,
2007-09-15,0.75, -1.41, 4.35, 1.95, 1.53, 11.31, repro,
2007-09-16,1.98, -1.34, 2.74, 1.87, 1.53, 10.85, repro,
2007-09-17,1.83, -1.77, 14.21, 1.89, 1.54, 10.89, repro,
2007-09-18,2.94, -2.38, 10.06, 1.85, 1.47, 10.54, repro,
2007-09-19,1.28, -2.40, 8.23, 1.84, 1.46, 10.46, repro,
2007-09-20,2.27, -1.48, 17.10, 1.87, 1.46, 10.60, repro,
2007-09-21,3.01, -1.48, 10.94, 2.34, 1.82, 13.23, repro,
2007-09-22,1.18, -0.51, 5.19, 1.93, 1.51, 11.00, repro,
2007-09-24,2.27, -2.15, -0.91, 2.15, 1.68, 12.19, repro,
2007-09-25,2.96, -0.47, 6.77, 3.11, 2.51, 18.60, repro,
2007-09-26,2.76, -2.09, 12.23, 1.83, 1.46, 10.46, repro,
2007-09-27,1.11, -1.80, 6.11, 1.89, 1.50, 10.84, repro,
2007-09-28,0.87, -1.68, 5.44, 1.84, 1.48, 10.50, repro,
2007-09-29,0.42, -1.59, 5.95, 1.82, 1.47, 10.44, repro,
2007-09-30,1.33, -1.52, 5.24, 1.85, 1.48, 10.66, repro,
2007-10-01,1.18, -2.13, 9.58, 1.88, 1.48, 10.69, repro,
2007-10-02,0.22, -1.60, 15.59, 1.89, 1.49, 10.75, repro,
2007-10-03,1.89, -2.57, 3.52, 1.91, 1.49, 10.80, repro,
2007-10-04,1.74, -0.37, -2.65, 1.86, 1.46, 10.55, repro,
2007-10-05,1.59, -1.88, 2.24, 1.84, 1.48, 10.55, repro,
2007-10-06,1.06, -1.95, 0.45, 1.91, 1.54, 11.04, repro,
2007-10-07,1.79, -1.70, 1.69, 1.86, 1.48, 10.59, repro,
2007-10-08,0.63, -0.67, -6.92, 1.95, 1.55, 11.38, repro,
2007-10-09,2.07, -1.82, 2.69, 2.05, 1.61, 11.71, repro,
2007-10-10,2.60, -2.48, -3.54, 1.93, 1.59, 11.16, repro,
2007-10-11,1.12, -2.98, -0.01, 1.87, 1.50, 10.84, repro,
2007-10-12,2.26, -3.06, 8.52, 1.91, 1.52, 11.01, repro,
2007-10-13,1.27, -1.40, 1.69, 1.86, 1.49, 10.67, repro,
2007-10-14,1.68, -1.57, 8.42, 1.87, 1.49, 10.78, repro,
2007-10-15,-0.49, -1.13, 6.46, 1.87, 1.49, 10.70, repro,
2007-10-16,0.49, -1.59, 0.20, 1.88, 1.50, 10.85, repro,
2007-10-17,1.29, -1.74, 2.39, 1.88, 1.50, 10.80, repro,
2007-10-18,1.03, -2.29, 8.66, 1.90, 1.54, 10.84, repro,
2007-10-19,1.90, -2.09, 7.71, 1.89, 1.49, 10.74, repro,
2007-10-20,3.25, -3.18, 10.05, 1.88, 1.49, 10.80, repro,
2007-10-21,1.26, -1.56, -0.22, 1.86, 1.48, 10.65, repro,
2007-10-22,1.62, -1.77, 2.56, 1.87, 1.50, 10.81, repro,
2007-10-23,3.97, -3.35, 7.67, 1.89, 1.52, 10.82, repro,
2007-10-24,3.37, -1.58, 7.43, 1.91, 1.53, 10.96, repro,
2007-10-25,2.78, -0.35, 0.05, 1.94, 1.51, 10.90, repro,
2007-10-26,4.66, -2.66, 3.31, 1.93, 1.53, 10.95, repro,
2007-10-27,2.39, -2.40, -1.11, 1.87, 1.49, 10.73, repro,
2007-10-28,4.22, -1.52, 7.05, 1.87, 1.49, 10.70, repro,
2007-10-29,3.36, -0.54, 5.02, 1.89, 1.51, 10.71, repro,
2007-10-30,2.43, -0.40, -1.51, 1.86, 1.47, 10.63, repro,
2007-10-31,1.69, -1.01, -2.12, 1.85, 1.47, 10.58, repro,
2007-11-01,2.70, -1.37, -0.49, 1.82, 1.46, 10.49, repro,
2007-11-02,2.46, -2.35, -0.41, 1.83, 1.46, 10.53, repro,
2007-11-03,3.48, -2.18, 9.88, 1.83, 1.47, 10.53, repro,
2007-11-04,2.52, -1.73, 0.35, 1.83, 1.46, 10.48, repro,
2007-11-05,2.72, -2.44, -3.97, 1.82, 1.45, 10.45, repro,
2007-11-06,1.91, -2.86, -1.70, 1.83, 1.45, 10.46, repro,
2007-11-07,1.89, -2.43, -2.72, 1.84, 1.46, 10.58, repro,
2007-11-08,2.45, -0.63, 3.73, 1.87, 1.49, 10.75, repro,
2007-11-09,1.09, -0.80, 3.31, 1.85, 1.50, 10.69, repro,
2007-11-10,-0.04, -0.63, -2.90, 1.85, 1.46, 10.54, repro,
2007-11-11,1.46, -1.14, 5.96, 1.83, 1.45, 10.45, repro,
2007-11-12,1.17, -1.52, 2.43, 1.84, 1.46, 10.53, repro,
2007-11-13,0.71, -1.46, 5.79, 1.83, 1.48, 10.47, repro,
2007-11-14,2.04, -1.00, 6.59, 1.82, 1.47, 10.47, repro,
2007-11-15,0.84, -1.31, 3.67, 1.83, 1.46, 10.51, repro,
2007-11-16,0.08, -1.41, -0.06, 1.85, 1.46, 10.53, repro,
2007-11-17,1.39, -1.49, -0.51, 1.83, 1.45, 10.46, repro,
2007-11-18,1.17, -1.29, 9.73, 1.84, 1.48, 10.65, repro,
2007-11-19,1.49, -1.87, 11.02, 1.81, 1.46, 10.41, repro,
2007-11-20,1.42, -0.86, 3.51, 1.86, 1.49, 10.44, repro,
2007-11-21,-0.54, -3.05, 5.25, 1.83, 1.46, 10.43, repro,
2007-11-22,1.75, -3.60, 1.71, 1.86, 1.47, 10.63, repro,
2007-11-23,1.48, -2.96, 4.04, 1.91, 1.50, 10.85, repro,
2007-11-24,0.14, -2.21, 3.60, 1.91, 1.55, 10.89, repro,
2007-11-25,0.81, -1.51, 3.20, 1.86, 1.51, 10.66, repro,
2007-11-26,1.54, -2.60, 4.00, 1.83, 1.47, 10.50, repro,
2007-11-27,1.12, -2.49, 6.08, 1.86, 1.53, 10.72, repro,
2007-11-28,0.99, -0.75, 0.16, 1.88, 1.52, 10.82, repro,
2007-11-29,2.88, -1.89, 8.47, 1.85, 1.50, 10.73, repro,
2007-11-30,2.19, -0.71, 2.90, 1.89, 1.55, 10.91, repro,
2007-12-01,2.19, -0.93, -5.50, 1.88, 1.55, 10.83, repro,
2007-12-02,0.89, -0.82, -7.35, 1.84, 1.49, 10.55, repro,
2007-12-03,1.60, -2.94, -0.61, 1.92, 1.54, 10.98, repro,
2007-12-04,2.59, -1.60, 4.33, 1.93, 1.56, 11.08, repro,
2007-12-05,2.82, -1.80, 13.73, 1.91, 1.57, 11.03, repro,
2007-12-06,3.25, -3.43, 9.92, 1.93, 1.56, 10.97, repro,
2007-12-07,1.58, -1.63, 2.52, 1.99, 1.66, 11.26, repro,
2007-12-08,2.72, -3.17, 0.18, 1.94, 1.60, 11.09, repro,
2007-12-09,2.18, -1.71, -1.23, 2.00, 1.60, 11.20, repro,
2007-12-10,5.40, -2.86, 8.49, 2.01, 1.64, 11.37, repro,
2007-12-11,2.95, -1.59, 11.28, 1.90, 1.57, 10.88, repro,
2007-12-12,2.52, -2.29, 3.00, 1.94, 1.62, 11.21, repro,
2007-12-13,2.16, -2.04, -2.07, 1.96, 1.63, 11.20, repro,
2007-12-14,3.33, -1.42, 5.73, 1.88, 1.53, 10.85, repro,
2007-12-15,4.13, -2.65, 14.07, 1.94, 1.57, 11.20, repro,
2007-12-16,3.12, -1.02, 9.03, 1.94, 1.60, 11.31, repro,
2007-12-17,3.27, -0.45, 2.58, 1.96, 1.62, 11.39, repro,
2007-12-18,3.13, -2.64, 0.57, 1.92, 1.56, 11.07, repro,
2007-12-19,2.34, -0.91, 4.33, 1.94, 1.59, 11.16, repro,
2007-12-20,1.38, -2.29, 3.58, 1.92, 1.54, 10.95, repro,
2007-12-21,3.02, -0.99, 5.74, 1.96, 1.58, 11.17, repro,
2007-12-22,3.20, -1.99, 5.80, 1.90, 1.55, 10.88, repro,
2007-12-23,2.58, -1.60, 6.71, 1.92, 1.54, 10.95, repro,
2007-12-24,2.98, -2.07, 8.30, 1.89, 1.56, 10.87, repro,
2007-12-25,3.78, -2.68, 4.32, 1.89, 1.54, 10.85, repro,
2007-12-26,3.93, -2.43, 4.47, 1.92, 1.51, 10.83, repro,
2007-12-27,4.78, -2.65, 14.43, 1.92, 1.54, 11.01, repro,
2007-12-28,2.26, -1.26, 12.39, 1.91, 1.53, 10.97, repro,
2007-12-29,2.79, -1.60, -0.82, 1.89, 1.53, 10.88, repro,
2007-12-30,3.35, -3.22, 5.80, 1.90, 1.53, 10.91, repro,
2007-12-31,5.58, -4.06, 1.88, 1.86, 1.50, 10.66, repro,
2008-01-01,5.11, -2.49, 9.55, 1.86, 1.51, 10.68, repro,
2008-01-02,3.68, -1.31, 5.42, 1.87, 1.51, 10.72, repro,
2008-01-03,3.14, -0.63, 7.25, 1.82, 1.47, 10.41, repro,
2008-01-04,3.49, -2.69, 4.08, 1.82, 1.47, 10.45, repro,
2008-01-05,2.36, -0.94, 0.51, 1.89, 1.48, 10.67, repro,
2008-01-06,2.67, -1.58, 5.68, 1.84, 1.47, 10.49, repro,
2008-01-07,1.80, -1.34, 9.53, 1.84, 1.47, 10.54, repro,
2008-01-08,2.47, -0.98, 3.46, 1.86, 1.53, 10.75, repro,
2008-01-09,2.93, -1.26, -1.35, 1.85, 1.51, 10.69, repro,
2008-01-10,1.28, -1.07, -2.82, 1.82, 1.45, 10.47, repro,
2008-01-11,0.86, -1.64, -2.58, 1.83, 1.46, 10.48, repro,
2008-01-12,2.87, -2.47, 2.64, 1.88, 1.51, 10.72, repro,
2008-01-13,2.39, -1.31, 1.61, 1.85, 1.46, 10.62, repro,
2008-01-14,2.66, -3.47, 4.59, 1.85, 1.49, 10.61, repro,
2008-01-15,2.91, -2.78, -2.01, 1.83, 1.47, 10.56, repro,
2008-01-16,2.56, -3.24, -0.49, 1.87, 1.51, 10.81, repro,
2008-01-17,3.25, -1.67, -4.03, 1.90, 1.59, 10.95, repro,
2008-01-18,3.97, -3.65, 2.17, 1.88, 1.50, 10.76, repro,
2008-01-19,4.50, -4.67, -3.33, 1.88, 1.50, 10.71, repro,
2008-01-20,4.76, -3.48, -6.30, 1.86, 1.49, 10.62, repro,
2008-01-21,4.92, -1.88, -7.65, 1.85, 1.51, 10.68, repro,
2008-01-22,3.42, -2.68, 1.70, 1.91, 1.60, 11.03, repro,
2008-01-23,4.64, -4.05, 13.27, 1.87, 1.50, 10.71, repro,
2008-01-24,4.86, -4.67, 10.57, 1.91, 1.54, 10.80, repro,
2008-01-25,5.36, -3.93, 8.10, 1.99, 1.65, 11.30, repro,
2008-01-26,4.33, -2.63, -1.50, 1.96, 1.66, 11.25, repro,
2008-01-27,5.22, -2.12, 5.47, 1.99, 1.64, 11.57, repro,
2008-01-28,3.31, -1.14, 3.54, 1.92, 1.61, 11.06, repro,
2008-01-29,1.91, -1.63, 2.79, 2.00, 1.63, 11.54, repro,
2008-01-30,3.65, -2.87, -5.99, 2.00, 1.68, 11.49, repro,
2008-01-31,3.08, -2.84, -3.57, 1.91, 1.60, 10.99, repro,
2008-02-01,2.26, -2.76, -2.43, 1.92, 1.55, 10.95, repro,
2008-02-02,2.78, -1.85, 6.96, 1.89, 1.55, 10.90, repro,
2008-02-03,3.44, -2.85, 4.68, 1.96, 1.60, 11.18, repro,
2008-02-04,4.04, -4.10, 7.79, 1.86, 1.47, 10.60, repro,
2008-02-05,5.91, -4.37, -0.06, 2.03, 1.68, 11.59, repro,
2008-02-06,6.15, -4.45, 2.27, 1.98, 1.63, 11.35, repro,
2008-02-07,6.38, -3.03, 3.82, 1.88, 1.52, 10.80, repro,
2008-02-08,5.07, -0.17, 4.50, 1.84, 1.48, 10.60, repro,
2008-02-09,6.45, -2.52, 3.84, 1.85, 1.48, 10.66, repro,
2008-02-10,8.85, -2.21, -1.07, 1.89, 1.50, 10.72, repro,
2008-02-11,8.61, -2.48, -4.86, 1.85, 1.47, 10.51, repro,
2008-02-12,7.64, -2.68, -6.58, 1.82, 1.47, 10.49, repro,
2008-02-13,5.80, -0.87, -8.95, 1.82, 1.46, 10.49, repro,
2008-02-14,6.32, -2.34, 1.76, 1.85, 1.48, 10.59, repro,
2008-02-15,6.17, -3.43, 6.24, 1.88, 1.52, 10.80, repro,
2008-02-16,5.54, -0.63, -0.55, 1.83, 1.47, 10.49, repro,
2008-02-17,6.38, -1.41, 3.24, 1.84, 1.46, 10.50, repro,
2008-02-18,7.20, -0.80, 5.46, 1.83, 1.47, 10.46, repro,
2008-02-19,7.18, 0.33, 7.88, 1.82, 1.46, 10.46, repro,
2008-02-20,7.53, -1.91, 14.76, 1.84, 1.47, 10.58, repro,
2008-02-21,7.48, -2.04, 20.11, 1.85, 1.47, 10.55, repro,
2008-02-22,6.88, -1.54, 12.17, 1.84, 1.46, 10.51, repro,
2008-02-23,6.99, -0.32, 7.43, 1.83, 1.46, 10.43, repro,
2008-02-24,6.47, -1.07, 8.72, 1.84, 1.46, 10.52, repro,
2008-02-25,6.34, -0.87, 4.73, 1.84, 1.47, 10.56, repro,
2008-02-26,6.15, -2.34, 8.52, 1.84, 1.45, 10.57, repro,
2008-02-27,5.88, -1.17, 1.66, 1.83, 1.46, 10.43, repro,
2008-02-28,6.34, -1.95, 2.18, 1.84, 1.46, 10.53, repro,
2008-02-29,7.09, -0.15, 6.44, 1.84, 1.46, 10.52, repro,
2008-03-01,4.67, -0.26, 6.59, 1.85, 1.47, 10.67, repro,
2008-03-02,4.86, -1.52, 5.25, 1.84, 1.47, 10.57, repro,
2008-03-03,3.88, -1.00, -0.88, 1.83, 1.45, 10.49, repro,
2008-03-04,5.82, -0.96, -2.82, 1.83, 1.44, 10.49, repro,
2008-03-05,7.58, -2.10, 5.80, 1.86, 1.48, 10.66, repro,
2008-03-06,5.38, -2.07, 10.35, 1.83, 1.45, 10.53, repro,
2008-03-07,5.51, -0.74, 9.20, 1.84, 1.47, 10.62, repro,
2008-03-08,5.80, -0.66, 9.19, 1.85, 1.48, 10.61, repro,
2008-03-09,2.42, 0.27, 7.92, 1.84, 1.45, 10.47, repro,
2008-03-10,4.43, -1.21, 10.73, 1.82, 1.44, 10.46, repro,
2008-03-11,3.92, -2.31, 12.68, 1.83, 1.45, 10.52, repro,
2008-03-12,2.09, -1.90, 9.02, 1.85, 1.45, 10.62, repro,
2008-03-13,2.44, -0.82, -3.82, 1.85, 1.46, 10.60, repro,
2008-03-14,2.60, -0.98, -7.60, 1.86, 1.46, 10.67, repro,
2008-03-15,2.34, -2.69, -5.73, 1.84, 1.45, 10.49, repro,
2008-03-16,2.03, -0.94, -4.76, 1.84, 1.47, 10.61, repro,
2008-03-17,2.75, -1.96, -5.07, 1.93, 1.52, 11.14, repro,
2008-03-18,2.70, -1.86, -0.48, 1.92, 1.52, 11.10, repro,
2008-03-19,2.69, -1.73, 0.78, 1.91, 1.48, 10.92, repro,
2008-03-20,3.17, -1.31, -6.06, 1.90, 1.48, 10.87, repro,
2008-03-21,2.31, -1.86, 1.03, 1.87, 1.48, 10.74, repro,
2008-03-22,1.27, -2.49, 0.73, 1.89, 1.50, 10.92, repro,
2008-03-23,1.69, -1.10, 1.75, 1.88, 1.47, 10.76, repro,
2008-03-24,1.29, -1.93, 0.64, 1.90, 1.48, 10.81, repro,
2008-03-25,2.57, -1.41, 3.26, 1.89, 1.48, 10.89, repro,
2008-03-26,1.38, -1.78, -2.31, 1.94, 1.53, 11.16, repro,
2008-03-27,0.52, -1.97, -2.57, 1.93, 1.50, 11.25, repro,
2008-03-28,2.27, -2.00, -1.78, 1.86, 1.49, 10.76, repro,
2008-03-29,1.92, 0.09, -3.95, 1.85, 1.46, 10.66, repro,
2008-03-30,2.11, -1.29, -8.58, 1.86, 1.45, 10.68, repro,
2008-03-31,2.64, -1.22, -7.09, 1.85, 1.46, 10.60, repro,
2008-04-01,1.87, -0.91, -16.84, 1.83, 1.45, 10.54, repro,
2008-04-02,2.29, 0.91, -11.49, 1.86, 1.49, 10.76, repro,
2008-04-03,2.15, -1.85, -11.25, 1.84, 1.44, 10.54, repro,
2008-04-04,2.12, -1.24, -17.75, 1.89, 1.49, 10.95, repro,
2008-04-05,2.61, -1.22, -9.82, 1.86, 1.47, 10.67, repro,
2008-04-06,0.71, 0.19, -18.31, 1.85, 1.46, 10.64, repro,
2008-04-07,0.03, -0.28, -22.97, 1.84, 1.46, 10.59, repro,
2008-04-08,0.55, -1.08, -17.61, 1.85, 1.46, 10.60, repro,
2008-04-09,0.74, 0.15, -16.78, 1.85, 1.45, 10.61, repro,
2008-04-10,1.22, -1.15, -10.91, 1.84, 1.46, 10.59, repro,
2008-04-11,-0.04, -0.56, -22.28, 1.84, 1.46, 10.59, repro,
2008-04-12,0.88, -1.86, -20.39, 1.84, 1.45, 10.56, repro,
2008-04-13,2.19, -1.11, -9.44, 1.83, 1.46, 10.54, repro,
2008-04-14,1.08, -1.00, -9.12, 1.85, 1.46, 10.64, repro,
2008-04-15,3.32, -1.21, 3.64, 1.87, 1.48, 10.72, repro,
2008-04-16,0.42, -0.17, -5.91, 1.89, 1.50, 10.78, repro,
2008-04-17,1.34, -1.08, -10.87, 1.86, 1.46, 10.69, repro,
2008-04-18,1.15, -1.23, -11.36, 1.82, 1.45, 10.48, repro,
2008-04-19,1.29, -1.68, -15.97, 1.83, 1.46, 10.54, repro,
2008-04-20,2.84, -1.17, -16.97, 1.87, 1.51, 10.78, repro,
2008-04-21,3.38, -0.51, -7.88, 1.84, 1.46, 10.58, repro,
2008-04-22,2.83, -0.60, -20.88, 1.85, 1.46, 10.60, repro,
2008-04-23,2.74, -0.01, -22.16, 1.87, 1.50, 10.77, repro,
2008-04-24,2.88, -0.62, -15.65, 1.85, 1.49, 10.67, repro,
2008-04-25,1.96, -0.28, -15.32, 1.83, 1.46, 10.52, repro,
2008-04-26,2.25, -1.07, -9.95, 1.89, 1.49, 10.95, repro,
2008-04-27,2.11, -1.18, -12.60, 1.89, 1.48, 10.84, repro,
2008-04-28,1.04, 0.15, -16.46, 1.91, 1.47, 10.90, repro,
2008-04-29,2.48, -1.52, -17.01, 1.87, 1.50, 10.81, repro,
2008-04-30,1.24, 0.23, -12.42, 1.82, 1.45, 10.44, repro,
2008-05-01,1.07, -0.90, -19.32, 1.82, 1.47, 10.54, repro,
2008-05-02,0.68, 0.80, -22.71, 1.85, 1.46, 10.66, repro,
2008-05-03,0.46, 0.10, -22.41, 1.85, 1.47, 10.63, repro,
2008-05-04,1.30, -0.49, -16.90, 1.93, 1.51, 11.14, repro,
2008-05-05,1.30, 0.55, -18.41, 1.82, 1.46, 10.47, repro,
2008-05-06,2.52, -1.08, -15.82, 1.83, 1.46, 10.52, repro,
2008-05-07,0.45, -1.03, -19.88, 1.83, 1.46, 10.66, repro,
2008-05-08,-0.40, -0.14, -19.61, 1.84, 1.46, 10.59, repro,
2008-05-09,-0.46, 0.20, -18.70, 1.86, 1.46, 10.71, repro,
2008-05-10,0.70, -0.04, -14.87, 1.81, 1.45, 10.42, repro,
2008-05-11,0.46, 0.50, -8.51, 1.82, 1.46, 10.52, repro,
2008-05-12,-1.53, 2.41, -8.39, 1.82, 1.47, 10.53, repro,
2008-05-13,-1.03, 1.10, -11.87, 1.84, 1.46, 10.60, repro,
2008-05-14,0.36, -0.66, -11.79, 1.84, 1.45, 10.51, repro,
2008-05-15,1.38, -0.83, -12.69, 1.83, 1.46, 10.53, repro,
2008-05-16,2.03, 0.58, -14.86, 1.81, 1.45, 10.38, repro,
2008-05-17,0.91, 0.00, -14.93, 1.81, 1.46, 10.49, repro,
2008-05-18,1.20, 1.23, -14.11, 1.83, 1.47, 10.57, repro,
2008-05-19,0.87, 0.22, -12.24, 1.84, 1.45, 10.56, repro,
2008-05-20,0.89, 0.74, -13.98, 1.85, 1.46, 10.63, repro,
2008-05-21,0.79, 0.48, -15.15, 1.85, 1.46, 10.65, repro,
2008-05-22,1.04, 0.98, -14.94, 1.85, 1.50, 10.64, repro,
2008-05-23,1.18, 0.56, -13.32, 1.89, 1.51, 10.93, repro,
2008-05-24,-0.01, 2.11, -14.83, 1.84, 1.47, 10.60, repro,
2008-05-25,1.18, 1.85, -11.09, 1.85, 1.46, 10.58, repro,
2008-05-26,1.55, 0.91, -6.87, 1.83, 1.45, 10.49, repro,
2008-05-27,2.84, 0.72, -6.95, 1.81, 1.46, 10.46, repro,
2008-05-28,2.30, 0.10, -5.01, 1.82, 1.47, 10.51, repro,
2008-05-29,2.84, 0.89, -0.67, 1.85, 1.48, 10.67, repro,
2008-05-30,3.96, -0.44, -1.58, 1.86, 1.48, 10.66, repro,
2008-05-31,3.48, -0.86, -3.55, 1.91, 1.49, 11.03, repro,
2008-06-01,3.74, -1.29, -4.82, 1.83, 1.46, 10.56, repro,
2008-06-02,3.06, -0.40, -3.21, 1.82, 1.48, 10.60, repro,
2008-06-03,2.86, 0.14, -5.13, 1.85, 1.50, 10.77, repro,
2008-06-04,2.99, 2.37, -2.74, 1.84, 1.46, 10.64, repro,
2008-06-05,3.79, 1.00, -2.97, 1.84, 1.46, 10.59, repro,
2008-06-06,2.61, 0.57, -6.37, 1.88, 1.49, 10.74, repro,
2008-06-07,0.24, 2.32, -4.64, 1.87, 1.53, 10.84, repro,
2008-06-08,-0.58, 1.04, -13.22, 4.03, 3.30, 24.29, repro,
2009-09-14,1.48, -0.65, 12.61, 3.25, 2.72, 20.13, repro,
2009-09-15,-0.84, 0.08, -4.35, 1.84, 1.50, 10.53, repro,
2009-09-16,0.41, 0.94, -1.25, 6.34, 4.85, 34.90, repro,
2010-09-23,1.55, 0.98, 13.26, 4.87, 4.46, 31.06, repro,
2010-09-24,0.20, 0.63, 9.98, 1.90, 1.53, 11.16, repro,
2010-09-25,-0.28, -0.58, 11.07, 1.80, 1.42, 10.51, repro,
2010-09-26,0.06, 0.67, 3.66, 1.82, 1.46, 10.65, repro,
2010-09-27,-0.93, 1.46, 2.27, 1.89, 1.49, 11.09, repro,
2010-09-28,-2.53, 2.22, 3.71, 1.85, 1.46, 10.93, repro,
2010-09-29,-0.68, 1.49, 8.20, 1.78, 1.46, 10.61, repro,
2010-09-30,0.56, 0.75, 2.96, 1.81, 1.46, 10.62, repro,
2010-10-01,-0.95, 2.13, 3.55, 1.81, 1.45, 10.63, repro,
2010-10-02,-1.27, 2.56, 6.68, 1.81, 1.41, 10.53, repro,
2010-10-03,-0.61, 1.30, 11.82, 1.84, 1.44, 10.62, repro,
2010-10-04,0.14, 1.92, 9.87, 1.82, 1.45, 10.55, repro,
2010-10-05,-0.81, 1.40, 19.64, 1.96, 1.49, 11.52, repro,
2010-10-06,0.13, 0.38, 20.02, 1.82, 1.43, 10.57, repro,
2010-10-07,0.33, 1.16, 9.12, 1.80, 1.40, 10.44, repro,
2010-10-08,0.20, 1.94, 1.82, 1.79, 1.41, 10.43, repro,
2010-10-09,-0.12, 0.10, -1.36, 1.79, 1.40, 10.38, repro,
2010-10-10,-0.45, 2.14, 1.98, 1.82, 1.42, 10.58, repro,
2010-10-11,-0.03, 1.40, 5.64, 1.90, 1.54, 11.12, repro,
2010-10-12,-0.85, -1.16, 6.61, 1.82, 1.43, 10.67, repro,
2010-10-13,-0.66, 0.18, -4.48, 1.83, 1.42, 10.62, repro,
2010-10-14,0.44, 0.57, 8.31, 1.84, 1.43, 10.68, repro,
2010-10-15,1.09, 1.19, 7.59, 1.87, 1.48, 10.83, repro,
2010-10-16,0.17, -0.44, 10.08, 1.89, 1.49, 10.89, repro,
2010-10-17,1.78, -0.62, 7.76, 1.86, 1.50, 10.94, repro,
2010-10-18,0.20, 0.25, -1.18, 1.84, 1.45, 10.77, repro,
2010-10-19,0.08, -0.20, 1.90, 1.88, 1.50, 11.22, repro,
2010-10-20,1.28, -0.13, -4.07, 1.89, 1.53, 11.20, repro,
2010-10-21,-0.48, 0.29, 0.93, 1.85, 1.47, 10.86, repro,
2010-10-22,-1.32, 2.17, -1.87, 1.83, 1.44, 10.75, repro,
2010-10-23,0.43, 0.60, 6.76, 2.04, 1.70, 11.97, repro,
2010-10-24,-0.55, 0.28, 0.65, 1.85, 1.50, 10.85, repro,
2010-10-25,0.61, -0.62, 8.49, 1.87, 1.54, 11.12, repro,
2010-10-26,-0.45, -0.63, 11.62, 1.81, 1.42, 10.54, repro,
2010-10-27,0.39, 0.45, 6.43, 1.79, 1.42, 10.50, repro,
2010-10-28,0.24, 0.32, 8.89, 1.81, 1.43, 10.64, repro,
2010-10-29,1.40, -0.52, 10.94, 1.80, 1.41, 10.54, repro,
2010-10-30,2.25, -0.64, 10.69, 1.81, 1.43, 10.68, repro,
2010-10-31,0.70, 0.71, 7.17, 1.98, 1.63, 11.54, repro,
2010-11-01,0.92, 0.75, 13.36, 1.87, 1.49, 10.82, repro,
2010-11-02,0.69, 1.06, 22.59, 1.81, 1.45, 10.65, repro,
2010-11-03,2.50, 0.45, 16.44, 1.81, 1.41, 10.58, repro,
2010-11-04,1.77, 1.76, 8.62, 1.78, 1.41, 10.46, repro,
2010-11-05,0.67, 0.58, 12.04, 1.81, 1.44, 10.65, repro,
2010-11-06,2.19, 0.35, 13.60, 1.83, 1.49, 10.71, repro,
2010-11-07,1.60, 0.52, 8.92, 1.82, 1.45, 10.69, repro,
2010-11-08,1.09, 1.71, 5.02, 1.86, 1.43, 10.68, repro,
2010-11-09,2.90, -0.58, 10.39, 1.84, 1.45, 10.70, repro,
2010-11-10,3.32, 0.25, 13.53, 1.84, 1.48, 10.70, repro,
2010-11-11,1.68, -2.73, 13.91, 1.87, 1.53, 11.02, repro,
2010-11-12,2.33, 0.12, 13.22, 1.82, 1.48, 10.65, repro,
2010-11-13,2.37, -0.07, 18.16, 1.88, 1.50, 11.08, repro,
2010-11-14,2.80, -0.67, 16.52, 1.95, 1.54, 11.40, repro,
2010-11-15,3.44, -1.30, 15.99, 1.83, 1.46, 10.71, repro,
2010-11-16,3.48, -0.65, 12.68, 1.83, 1.48, 10.72, repro,
2010-11-17,2.30, -0.82, 9.37, 1.82, 1.50, 10.77, repro,
2010-11-18,3.00, 0.79, 7.98, 1.79, 1.43, 10.55, repro,
2010-11-19,4.24, -0.48, 1.73, 1.83, 1.45, 10.84, repro,
2010-11-20,3.52, -1.29, -3.33, 1.79, 1.44, 10.47, repro,
2010-11-21,3.25, 0.08, -5.14, 1.83, 1.50, 10.65, repro,
2010-11-22,1.62, 0.68, 1.27, 1.85, 1.51, 10.75, repro,
2010-11-23,1.41, 0.63, 0.12, 1.82, 1.43, 10.56, repro,
2010-11-24,0.94, -0.01, -8.81, 1.80, 1.44, 10.66, repro,
2010-11-25,0.87, 0.27, -11.14, 1.77, 1.40, 10.33, repro,
2010-11-26,1.11, 0.23, -6.13, 1.77, 1.41, 10.30, repro,
2010-11-27,0.60, 0.14, -3.31, 1.82, 1.44, 10.59, repro,
2010-11-28,1.31, -0.25, 0.36, 1.80, 1.45, 10.47, repro,
2010-11-29,5.05, 0.70, -7.36, 6.98, 5.61, 39.26, repro,
2011-02-22,6.65, -1.68, 19.08, 8.90, 6.84, 43.67, repro,
2011-02-23,6.70, -1.96, 4.96, 6.15, 7.34, 46.01, repro,
2011-02-24,2.62, 0.33, -8.24, 4.28, 3.43, 26.15, repro,
2011-02-25,3.62, -2.15, 26.74, 4.10, 3.30, 24.67, repro,
2011-02-26,4.84, -0.25, 14.14, 3.79, 3.03, 22.99, repro,
2011-02-27,3.21, 0.97, 11.63, 3.91, 3.09, 22.94, repro,
2011-03-02,2.89, 0.30, 0.44, 3.30, 2.71, 19.91, repro,
2011-03-03,2.27, 2.09, 7.84, 2.98, 2.56, 18.38, repro,
2011-03-04,2.43, 2.56, -4.43, 3.21, 2.51, 18.24, repro,
2011-03-05,1.47, 0.50, 7.66, 2.86, 2.30, 16.88, repro,
2011-03-07,-1.20, 1.00, -0.27, 3.42, 3.08, 21.21, repro,
2011-03-08,3.21, 2.76, 6.42, 2.91, 2.38, 16.77, repro,
2011-03-09,-0.21, 0.14, 6.37, 2.76, 2.27, 16.82, repro,
2011-03-10,1.21, 3.26, 10.14, 2.89, 2.44, 16.48, repro,
2011-03-11,1.22, 2.25, 5.99, 2.58, 2.11, 15.06, repro,
2011-03-12,1.78, 0.33, 3.28, 2.29, 1.86, 13.56, repro,
2011-03-13,-1.17, 1.83, 13.84, 2.34, 1.89, 13.89, repro,
2011-03-14,0.38, 1.82, 18.89, 2.58, 2.06, 15.05, repro,
2011-03-15,0.78, -1.28, 19.37, 2.26, 1.86, 13.30, repro,
2011-03-16,-0.63, -0.98, 16.93, 2.56, 2.09, 14.95, repro,
2011-03-17,0.05, -0.20, 11.07, 2.53, 2.06, 15.17, repro,
2011-03-18,1.95, 0.48, 7.68, 2.27, 1.84, 13.36, repro,
2011-03-19,0.38, 0.75, 6.44, 1.95, 1.60, 11.43, repro,
2011-03-20,1.13, 1.58, 3.09, 1.82, 1.47, 10.77, repro,
2011-03-21,2.52, 1.44, 19.86, 2.32, 1.92, 13.57, repro,
2011-03-22,0.43, -0.77, 6.42, 2.38, 1.92, 13.90, repro,
2011-03-23,-0.54, 0.19, -3.98, 2.05, 1.64, 12.04, repro,
2011-03-24,0.23, 0.85, -4.52, 1.84, 1.44, 10.81, repro,
2011-03-25,0.01, 0.10, 0.09, 1.79, 1.44, 10.55, repro,
2011-03-26,-0.80, 1.35, 1.46, 1.78, 1.43, 10.49, repro,
2011-03-27,-0.94, 0.19, 1.31, 1.83, 1.46, 10.73, repro,
2011-03-28,0.25, 0.70, 1.78, 1.80, 1.44, 10.65, repro,
2011-03-29,0.61, 2.43, 3.17, 1.91, 1.49, 11.22, repro,
2011-03-30,0.35, 1.76, 3.40, 2.01, 1.65, 11.88, repro,
2011-03-31,1.62, 1.86, 13.99, 2.00, 1.53, 11.94, repro,
2011-04-01,0.65, 1.20, 10.21, 1.93, 1.52, 11.29, repro,
2011-04-02,0.72, 1.06, 11.54, 1.98, 1.55, 11.45, repro,
2011-04-03,0.21, 0.54, 12.55, 2.01, 1.58, 11.79, repro,
2011-04-04,0.16, 1.96, 12.75, 1.89, 1.48, 10.95, repro,
2011-04-05,1.40, 2.08, 13.24, 1.83, 1.47, 10.67, repro,
2011-04-06,-0.51, 3.81, 6.35, 2.15, 1.70, 12.29, repro,
2011-04-07,0.63, 1.61, 6.27, 1.81, 1.45, 10.54, repro,
2011-04-08,-0.35, 2.11, 7.67, 1.89, 1.47, 11.01, repro,
2011-04-09,1.17, -0.85, 4.87, 1.96, 1.60, 11.60, repro,
2011-04-10,0.32, 0.46, 7.57, 1.83, 1.46, 10.59, repro,
2011-04-11,0.16, 1.36, 10.46, 1.87, 1.51, 10.92, repro,
2011-04-12,0.91, 1.27, 8.28, 1.95, 1.60, 11.39, repro,
2011-04-13,2.01, 1.67, 9.23, 1.88, 1.48, 11.03, repro,
2011-04-14,2.06, 1.06, 10.89, 1.76, 1.41, 10.30, repro,
2011-04-15,1.74, 0.71, 7.36, 1.80, 1.44, 10.54, repro,
2011-04-16,2.76, -0.29, 11.17, 1.78, 1.44, 10.50, repro,
2011-04-17,2.31, 1.48, 9.44, 1.77, 1.43, 10.37, repro,
2011-04-18,1.80, 1.79, 5.15, 1.83, 1.48, 10.75, repro,
2011-04-19,1.90, 1.84, 13.17, 1.83, 1.43, 10.69, repro,
2011-04-20,3.09, 0.75, 9.55, 1.81, 1.45, 10.51, repro,
2011-04-21,1.48, 1.97, 5.80, 1.80, 1.48, 10.61, repro,
2011-04-22,1.48, 2.68, 2.75, 1.79, 1.45, 10.62, repro,
2011-04-23,1.96, 2.41, 13.65, 1.98, 1.53, 11.71, repro,
2011-04-24,1.73, 2.31, 13.33, 1.89, 1.49, 11.06, repro,
2011-04-25,2.50, 2.32, 9.96, 1.79, 1.43, 10.45, repro,
2011-04-26,1.75, 1.53, 7.32, 1.76, 1.40, 10.31, repro,
2011-04-27,1.87, 0.70, 9.77, 1.78, 1.42, 10.38, repro,
2011-04-28,2.99, -0.08, 3.16, 1.83, 1.46, 10.59, repro,